DELTA 1 DEB, 7032

Orbit data source: Space-Track

DELTA 1 DEB, 7032 is space debris in SSO originally from a launch on Tue, 06 Nov 1973 UTC launched from the Air Force Western Test Range (AFWTR). Debris objects in space refer to the collection of defunct objects orbiting the Earth. Examples of debris include non-operational satellites, rocket bodies, and fragments generated from explosions, collisions, or faulty payload assembly.

Loading next visibility...
Identifier
7032, 1973-086Y
Orbit
SSO
Country
Flag of USUS
Related business
Manufacturer
Unknown
Mission
Spacecraft
Bus & Motor
Unknown
Mass
Unknown
Launch date (UTC)
1973-11-06 (52 years ago)
Launch vehicle
Unknown
Launch site
Air Force Western Test Range (AFWTR)
Object type
Payload
Rocket body
Debris
Shape & HBR
Unknown shape, 1.7 m
Radar Cross Section
Large (>1 m²)

Expand to show TLE details & history
Last TLE update: 9 hours ago

TLE from 9 hours ago
0 DELTA 1 DEB
1 07032U 73086Y   26034.49883389 -.00000039  00000-0  59626-4 0  9998
2 07032 102.4244  42.8172 0029540   3.6110 118.4561 12.34776032354447
Epoch: 2026-02-03T11:58Z
TLE epoch observation values (Epoch: 2026-02-03T11:58:19.248Z)
Latitude
55.67039°
Longitude
-71.71628°
Altitude
1,549.03 km
Speed
7.092 km/s
True Right ascension
16h 06m 10s
True Declination
55° 31' 34"
Sunlit
Object was in daylight at epoch
Visualization orbit readout
Latitude
Unknown
Longitude
Unknown
Altitude
Unknown
Speed
Unknown
Apparent Right ascension
Unknown
Apparent Declination
Unknown
Sunlit
N/A
Visualization observer readout
Local Sidereal Time
22:51:16
Azimuth
Unknown
Elevation
Unknown
Doppler factor
Unknown
Orbital elements
Apogee altitude
1,549.783 km
Perigee altitude
1,503.083 km
Semi-major axis
7,904.57 km
Eccentricity
0.00295
Inclination
102.4244°
RAAN
42.8172°
Arg. of periapsis
3.611°
True anomaly
118.75318°
Mean anomaly
118.4561°
Eccentric anomaly
118.60469°
Mean motion
3.08834 °/min
Orbital period
116.57 mins
BSTAR
0.000059626
Loading maneuver chart data...
Computing Atmospheric mass density...
Loading historical data...
Loading historical data...
Loading historical data...
Loading historical data...
Loading historical data...
Loading historical data...
Loading historical data...

Documentation

Showing up to 5 results
|